Regional Weather Roundup
Issued by NWS Grand Forks, ND

Home | Current Version | Previous Version | Graphics & Text | Print | Product List | Glossary On
Versions: 1 2 3 4 5 6 7 8 9 10 11 12 13 14 15 16 17 18 19 20 21 22 23 24 25 26 27 28 29 30 31 32 33 34 35 36 37 38 39 40 41 42 43 44 45 46 47 48 49 50
000
ASUS43 KFGF 171631
RWRFGF
PRAIRIE TO PINES  WEATHER ROUNDUP
NATIONAL WEATHER SERVICE EASTERN NORTH DAKOTA/GRAND FORKS ND
1100 AM CDT TUE OCT 17 2017

 **SATELLITE DATA USED TO AUGMENT SKY COVER AT AUTOMATED STATIONS**
 *****  WEATHER ACROSS EASTERN NORTH DAKOTA  *****

CITY           SKY/WX    TMP DP  RH WIND       PRES   REMARKS
GRAND FORKS    PTSUNNY   59  40  49 S12       29.84F
GRAND FRKS AFB FAIR      63  35  36 SW17      29.83F
DEVILS LAKE    FAIR      56  36  47 SW13      29.82F
FARGO          FAIR      55  40  56 S9        29.92F
WAHPETON ARPT  NOT AVBL
$$

 ***** WEATHER ACROSS CENTRAL AND WESTERN NORTH DAKOTA  *****

CITY           SKY/WX    TMP DP  RH WIND       PRES   REMARKS
BISMARCK       FAIR      60  33  36 SW8       29.90F
MINOT          FAIR      63  31  30 SW12      29.80S
JAMESTOWN      FAIR      62  39  42 S8        29.88F
MINOT AFB      FAIR      62  31  32 W15       29.77S
GARRISON         N/A     59  35  40 W12       29.84S
WILLISTON      FAIR      53  33  46 SW9       29.83S
DICKINSON      FAIR      62  27  26 W20       29.89
HETTINGER      FAIR      61  28  28 W9        29.98S
$$

 *****  OTHER AIRPORT OBSERVATIONS IN OUR AREA  *****

CITY           SKY/WX    TMP DP  RH WIND       PRES   REMARKS
WALHALLA       FAIR     N/A N/A N/A W6G18     29.76S
GRAFTON AIRPOR FAIR      63  37  39 SW20      29.80F
VALLEY CITY AR FAIR      61  39  44 S13       29.90F
CANDO          FAIR      61  34  36 W14       29.81F
CAVALIER APRT  FAIR      59  39  47 SW10      29.77F
GWINNER          N/A     59  39  47 SW12      29.93F
ROLLA          FAIR      55  34  44 SW12      29.78S
 ***** THE ABOVE OBSERVATIONS ARE NON NWS ARE NOT QUALITY
       CONTROLLED AND MAY MIS-REPORT RAIN FOR SNOW...
$$

  *****  WEATHER ACROSS NORTHERN MINNESOTA  *****

CITY           SKY/WX    TMP DP  RH WIND       PRES   REMARKS
FLAG ISLAND    FAIR      52  43  71 S12       29.85S
WARROAD        FAIR      61  43  51 S10G18    29.86S
ROSEAU           N/A     63  43  48 SW16      29.85S
HALLOCK        FAIR      57  37  47 S17       29.80F
THF RVR FALLS  FAIR      57  39  51 S14       29.88F
BAUDETTE       FAIR      57  38  48 MISG      29.88S
WASKISH        PTSUNNY   61  39  44 S7        29.90S
CROOKSTON      FAIR      55  39  54 S14       29.87F
STEPHEN NDAWN    N/A     55  37  50 S13         N/A
GREENBUSH NDAW   N/A     59  39  47 S14         N/A
$$
  *****  WEATHER ACROSS CENTRAL AND WEST MINNESOTA  *****

CITY           SKY/WX    TMP DP  RH WIND       PRES   REMARKS
FOSSTON        FAIR      57  37  47 S15       29.90F
BEMIDJI        FAIR      58  38  48 S10       29.91F
PARK RAPIDS    FAIR      58  42  55 S10       29.95F
ELBOW LAKE     FAIR      57  42  57 SE7       29.98F
WADENA         FAIR      63  41  45 S9        29.97S
DETROIT LAKES  FAIR      59  39  47 S8        29.95F
MOORHEAD       FAIR      54  41  62 S8        29.94S
FERGUS FALLS   FAIR      57  43  58 S5        29.97F
MORRIS MN      FAIR      59  46  63 S6        29.98F
STAPLES        FAIR      61  39  44 S5        29.98S
$$
  *****  WEATHER ELSEWHERE ACROSS MINNESOTA  *****

CITY           SKY/WX    TMP DP  RH WIND       PRES   REMARKS
DULUTH         FAIR      60  40  47 SW6       29.98R
INTRNTL FALLS  FAIR      55  38  52 VRB3      29.91F
ELY            FAIR      57  37  47 CALM      29.95S
CLOQUET        FAIR      61  37  41 S6        29.98S
WHEATON        FAIR      63  39  42 S7        29.97F
BRAINERD       FAIR      58  42  55 SW7       29.99S
HIBBING        FAIR      49  40  71 CALM      29.96S
ALEXANDRIA     FAIR      60  41  49 S10       29.99F
SAINT CLOUD    FAIR      57  47  69 S3        30.00F
MINNEAPOLIS    FAIR      56  44  64 SW5       30.03R
$$

  *****  WEATHER ACROSS SOUTH DAKOTA  *****

CITY           SKY/WX    TMP DP  RH WIND       PRES   REMARKS
SIOUX FALLS    FAIR      61  48  62 S3        30.05S
BROOKINGS      FAIR      57  43  59 S3        30.04
WATERTOWN      FAIR      55  44  66 S7        30.00F
HURON          FAIR      58  43  57 MISG      30.01F
SISSETON         N/A     66  40  38 S9        29.95F
ABERDEEN       FAIR      56  41  57 S8        29.99R
MITCHELL       FAIR      60  44  55 S5        30.04F
PIERRE         FAIR      53  35  50 SW10      30.01F
MOBRIDGE       FAIR      56  37  49 S7        29.95S
RAPID CITY     FAIR      63  31  30 SW3       30.06S
$$

  *****  SOME WEATHER IN NEARBY STATES *****

CITY           SKY/WX    TMP DP  RH WIND       PRES   REMARKS
GLASGOW MT     FAIR      61  27  27 SW12      29.81F
GREAT FALLS MT FAIR      61  21  21 SW26G33   29.89F
CHEYENNE WY    FAIR      64   8  11 W17       30.26S
SCOTTSBLUFF NE FAIR      51  27  39 CALM      30.17S
OMAHA NE       FAIR      59  43  55 S9        30.11F
DES MOINES IA  FAIR      63  42  46 SW13      30.13S
DAVENPORT IA   FAIR      64  42  44 SW12G23   30.20F
CHICAGO IL     FAIR      62  42  47 SW14G23   30.19S
EAU CLAIRE WI  FAIR      57  43  59 S3        30.04S
LA CROSSE WI   FAIR      60  45  57 S9        30.08S
$$

  *****  SOME NATIONAL WEATHER *****

CITY           SKY/WX    TMP DP  RH WIND       PRES   REMARKS
LA GUARDIA NY  FAIR      53  28  38 VRB6      30.32F
RALEIGH NC     FAIR      59  37  44 NE9G20    30.37S
ATLANTA GA     FAIR      62  40  44 E14G25    30.34S
NEW ORLEANS LA FAIR      65  56  72 NE9       30.21S
OKLAHOMA CITY  FAIR      63  42  46 S14       30.27S
ALBUQUERQUE NM FAIR      57  30  35 NW3       30.38R
SALT LAKE CITY PTSUNNY   52  26  36 SE7       30.28S
LOS ANGELES CA PTSUNNY   77  47  34 NW6       30.01R
BOISE ID       FAIR      46  32  58 N3        30.18R
SEATTLE WA     CLOUDY    52  48  86 S17       29.90F
$$

*** WEATHER ACROSS MANITOBA...SASKATCHEWAN AND ONTARIO ***
                ***ONTARIO***

CITY           SKY/WX    TMP DP  RH WIND       PRES   REMARKS
GERALDTON      PTSUNNY   50  34  53 W12G20    29.82R
THUNDER BAY    PTSUNNY   55  39  54 W8        29.92R
SIOUX LOOKOUT  PTSUNNY   52  37  58 NW6       29.89R
TORONTO        MOSUNNY   63  39  42 SW20G28   30.15F
BIG TROUT LK   CLOUDY    36  30  80 NW8       29.81R
PICKLE LAKE    CLOUDY    41  32  70 W10G17    29.85R
DRYDEN         CLOUDY    52  39  62 S3        29.88F
KENORA         PTSUNNY   55  39  54 S12       29.86F
$$
                *** MANITOBA***

CITY           SKY/WX    TMP DP  RH WIND       PRES   REMARKS
BRANDON        CLOUDY    52  36  54 W12       29.71F
DAUPHIN        SUNNY     57  34  41 SW10      29.65F
ISLAND LAKE    CLOUDY    37  32  81 SE7       29.83S
PILOT MOUND      N/A     54  36  50 SW13        N/A
THE PAS        MOSUNNY   48  39  71 SE20      29.63F
THOMPSON       CLOUDY    32  30  93 E5        29.77F
WINNIPEG       MOSUNNY   54  37  54 S13       29.75F
LYNN LAKE      FLURRIES  30  30 100 SE10      29.65F WCI  21
CHURCHILL      CLOUDY    25  23  93 W10       29.81S WCI  15
GILLAM         CLOUDY    28  25  86 CALM      29.84R
$$
                ***SASKATCHEWAN***

CITY           SKY/WX    TMP DP  RH WIND       PRES   REMARKS
ESTEVAN        PTSUNNY   59  30  33 SW16      29.74
KINDERSLEY     PTSUNNY   54  36  50 S15G25    29.51F
LLOYDMINSTER   PTSUNNY   46  36  66 S13       29.40F
PRINCE ALBERT  PTSUNNY   41  32  70 VRB2      29.54F
REGINA         PTSUNNY   55  30  38 SW10      29.66F
YORKTON        SUNNY     50  32  50 S10       29.62F
N. BATTLEFORD  SUNNY     45  36  70 SE5       29.50F
LA RONGE       CLOUDY    46  36  66 SE10      29.50F
SASKATOON      PTSUNNY   48  36  61 SW10      29.54F
SWIFT CURRENT  SUNNY     57  28  33 SW29      29.62F
$$
NOTE: THESE ARE AUTOMATED STATIONS WITH LIMITED QUALITY CONTROL
      "FAIR" INDICATES FEW OR NO CLOUDS BELOW 12,000 FEET WITH NO
      SIGNIFICANT WEATHER AND/OR OBSTRUCTIONS TO VISIBILITY.
      SKY/WX - SKY CONDITION AND SIGNIFICANT WEATHER.
      TMP - AIR TEMPERATURE.    DP   - DEWPOINT TEMPERATURE.
      RH  - RELATIVE HUMIDITY.  PRES - PRESSURE.
      HX  - HEAT INDEX.         WCI  - WIND CHILL INDEX.
$




USA.gov is the U.S. government's official web portal to all federal, state and local government web resources and services.